Location: Mount Kobau Star Party
(49.1167°N, 119.7333°W)
Time: 20:20:13
(UTC-07:00)

ISS - Visible Passes

Search period start: 17 July 2018 00:00
Search period end: 27 July 2018 00:00
Orbit: 402 x 408 km, 51.6° (Epoch: 18 July)

Date Brightness Start Highest point End Pass type
(mag) Time Alt. Az. Time Alt. Az. Time Alt. Az.
17 Jul -2.7 00:24:14 32° E 00:24:14 32° E 00:26:11 10° ENE visible
17 Jul -3.1 01:56:50 14° W 01:59:30 55° N 02:02:45 10° ENE visible
17 Jul -3.5 03:32:58 10° WNW 03:36:14 67° NNE 03:39:31 10° E visible
17 Jul -1.8 23:33:03 17° E 23:33:03 17° E 23:34:01 10° ENE visible
18 Jul -3.5 01:05:37 25° W 01:07:21 65° NNW 01:10:37 10° ENE visible
18 Jul -3.1 02:40:50 10° WNW 02:44:05 56° N 02:47:20 10° E visible
18 Jul -3.7 04:17:23 10° WNW 04:20:37 56° SSW 04:23:50 10° SE visible
18 Jul -2.8 22:36:14 10° SSW 22:38:58 24° SE 22:41:42 10° E visible
19 Jul -3.9 00:11:55 10° WSW 00:15:12 83° NNW 00:18:30 10° ENE visible
19 Jul -3.0 01:48:40 10° WNW 01:51:54 52° N 01:55:07 10° E visible
19 Jul -3.9 03:25:15 10° WNW 03:28:32 83° SSW 03:31:50 10° ESE visible
19 Jul -2.1 21:45:03 10° S 21:47:03 15° SE 21:49:04 10° E visible
19 Jul -4.0 23:19:50 10° WSW 23:23:05 70° SSE 23:26:21 10° ENE visible
20 Jul -3.1 00:56:28 10° W 00:59:41 53° N 01:02:56 10° ENE visible
20 Jul -3.7 02:33:07 10° WNW 02:36:25 74° NNE 02:39:42 10° ESE visible
20 Jul -3.0 04:09:48 10° W 04:12:43 30° SW 04:15:39 10° SSE visible
20 Jul -3.6 22:27:52 10° SW 22:31:01 46° SSE 22:34:11 10° ENE visible
21 Jul -3.3 00:04:14 10° W 00:07:29 60° N 00:10:45 10° ENE visible
21 Jul -3.3 01:40:58 10° WNW 01:44:14 59° N 01:47:29 10° E visible
21 Jul -3.7 03:17:32 10° WNW 03:20:43 47° SSW 03:23:53 10° SE visible
21 Jul -3.0 21:36:07 10° SSW 21:39:00 29° SE 21:41:53 10° E visible
21 Jul -3.7 23:12:02 10° WSW 23:15:18 75° NNW 23:18:35 10° ENE visible
22 Jul -3.1 00:48:47 10° WNW 00:52:01 53° N 00:55:15 10° E visible
22 Jul -4.0 02:25:21 10° WNW 02:28:37 72° SSW 02:31:54 10° ESE visible
22 Jul -2.2 04:02:34 10° W 04:04:40 16° SW 04:06:47 10° S visible
22 Jul -3.9 22:19:52 10° WSW 22:23:08 81° SSE 22:26:25 10° ENE visible
22 Jul -3.0 23:56:33 10° W 23:59:46 52° N 00:03:00 10° ENE visible
23 Jul -3.4 01:33:10 10° WNW 01:35:53 57° WNW 01:35:53 57° WNW visible
23 Jul -3.7 21:27:49 10° SW 21:31:00 54° SSE 21:34:13 10° ENE visible
23 Jul -3.2 23:04:18 10° W 23:07:31 57° N 23:10:47 10° ENE visible
24 Jul -3.5 00:41:00 10° WNW 00:44:15 64° N 00:44:34 59° NE visible
24 Jul -3.5 22:12:02 10° W 22:15:18 68° NNW 22:18:33 10° ENE visible
24 Jul -3.2 23:48:47 10° WNW 23:52:01 54° N 23:53:39 25° ENE visible
25 Jul -1.6 01:25:20 10° WNW 01:26:16 18° WNW 01:26:16 18° WNW visible
25 Jul -3.0 22:56:32 10° WNW 22:59:45 52° N 23:02:53 10° ENE visible
26 Jul -3.0 00:33:06 10° WNW 00:35:30 45° WNW 00:35:30 45° WNW visible
26 Jul -3.1 22:04:14 10° W 22:07:27 54° N 22:10:41 10° ENE visible
26 Jul -3.6 23:40:54 10° WNW 23:44:11 69° NNE 23:44:49 51° ENE visible
